Location: G�ppingen
(48.7089°N, 9.6563°E)
Time: 11:12:11
(UTC+01:00)

PicSat - Visible Passes

Search period start: 22 March 2019 00:00
Search period end: 01 April 2019 01:00
Orbit: 488 x 501 km, 97.5° (Epoch: 21 March)

Date Brightness Start Highest point End Pass type
(mag) Time Alt. Az. Time Alt. Az. Time Alt. Az.
22 Mar ? 21:01:07 18° NNE 21:01:07 18° NNE 21:02:23 10° N visible
22 Mar ? 22:35:40 12° NW 22:35:40 12° NW 22:36:01 10° NW visible
23 Mar ? 20:39:28 14° NE 20:39:28 14° NE 20:40:30 10° NNE visible
23 Mar ? 22:14:01 17° NNW 22:14:01 17° NNW 22:14:58 10° NNW visible
24 Mar ? 21:52:21 22° NNW 21:52:21 22° NNW 21:53:44 10° NNW visible
25 Mar ? 21:30:42 24° N 21:30:42 24° N 21:32:19 10° N visible
26 Mar ? 21:09:02 22° NNE 21:09:02 22° NNE 21:10:45 10° N visible
26 Mar ? 22:43:35 12° NW 22:43:35 12° NW 22:44:03 10° NW visible
27 Mar ? 20:47:22 17° NE 20:47:22 17° NE 20:48:57 10° NNE visible
27 Mar ? 22:21:55 18° NW 22:21:55 18° NW 22:23:06 10° NNW visible
28 Mar ? 20:25:41 12° NE 20:25:41 12° NE 20:26:42 10° NE visible
28 Mar ? 22:00:15 25° NNW 22:00:15 25° NNW 22:01:55 10° NNW visible
29 Mar ? 21:38:34 30° N 21:38:34 30° N 21:40:32 10° N visible
30 Mar ? 21:16:54 28° NNE 21:16:54 28° NNE 21:19:00 10° N visible
30 Mar ? 22:51:27 12° NW 22:51:27 12° NW 22:51:57 10° NW visible
31 Mar ? 21:55:13 21° NE 21:55:13 21° NE 21:57:18 10° NNE visible
31 Mar ? 23:29:46 19° NW 23:29:46 19° NW 23:31:08 10° NNW visible
